DW9864 Weather Reports


time (UTC)temp
F
wind
direction
speed
knots
gust
knots
rain 1hr
in
rain 24hr
in
rain mn
in
humidity
%
barometer
mb
20260510175517 63 197 0.0 1.7 0.00 0.15 0.15 78 1009.0
20260510175003 63 196 0.9 2.6 0.00 0.15 0.15 77 1009.0
20260510174503 63 193 0.9 2.6 0.00 0.15 0.15 78 1009.0
20260510174017 64 187 0.9 1.7 0.00 0.15 0.15 78 1008.9
20260510173503 63 186 0.9 1.7 0.00 0.15 0.15 78 1008.9
20260510173003 63 186 0.9 1.7 0.00 0.15 0.15 78 1008.9
20260510172503 63 184 0.9 1.7 0.00 0.15 0.15 78 1009.0
20260510172003 63 189 0.9 2.6 0.00 0.15 0.15 78 1009.0
20260510171503 62 228 0.9 2.6 0.00 0.15 0.15 78 1009.0
20260510171017 62 212 1.7 2.6 0.00 0.15 0.15 78 1009.2
20260510170503 63 184 0.9 2.6 0.00 0.15 0.15 79 1009.1
20260510170003 63 154 0.9 1.7 0.00 0.15 0.15 81 1009.1
20260510165503 62 154 0.9 1.7 0.00 0.15 0.15 80 1009.2
20260510165003 63 155 0.9 1.7 0.00 0.15 0.15 81 1009.4
20260510164503 62 159 0.0 1.7 0.00 0.15 0.15 81 1009.5
20260510164003 61 160 0.9 1.7 0.00 0.15 0.15 82 1009.5
20260510163503 61 160 0.0 1.7 0.00 0.15 0.15 81 1009.6
20260510163003 61 160 0.9 1.7 0.00 0.15 0.15 81 1009.7
20260510162503 61 159 0.9 1.7 0.00 0.15 0.15 81 1009.9
20260510162003 60 158 0.9 3.5 0.00 0.15 0.15 80 1009.8
20260510161503 60 167 1.7 4.3 0.00 0.15 0.15 80 1009.8
20260510161003 60 177 1.7 4.3 0.00 0.15 0.15 81 1009.7
20260510160503 60 177 1.7 4.3 0.00 0.15 0.15 82 1009.7
20260510160003 60 170 1.7 4.3 0.00 0.15 0.15 85 1009.9
20260510155503 60 154 1.7 5.2 0.00 0.15 0.15 84 1010.1
20260510155017 59 155 2.6 5.2 0.00 0.15 0.15 84 1009.8
20260510154503 58 157 1.7 5.2 0.00 0.15 0.15 85 1009.8
20260510154003 58 147 1.7 6.1 0.01 0.15 0.15 84 1009.8
20260510153503 58 157 2.6 7.0 0.02 0.15 0.15 86 1010.0
20260510153017 58 146 1.7 7.0 0.03 0.15 0.15 86 1010.2
20260510152503 59 71 0.9 2.6 0.05 0.15 0.15 89 1009.8
20260510152003 58 108 0.9 5.2 0.05 0.15 0.15 89 1009.7
20260510151503 58 141 1.7 6.1 0.06 0.15 0.15 89 1009.7
20260510151003 57 147 1.7 6.1 0.06 0.15 0.15 88 1010.2
20260510150503 57 176 1.7 5.2 0.07 0.15 0.15 88 1010.6
20260510150003 57 234 0.9 2.6 0.08 0.15 0.15 87 1010.8
20260510145503 57 242 0.9 2.6 0.11 0.15 0.15 86 1010.9
20260510145003 57 235 0.9 2.6 0.15 0.15 0.15 85 1010.9
20260510144503 57 157 0.9 2.6 0.15 0.15 0.15 85 1011.1
20260510144003 57 119 0.9 3.5 0.14 0.14 0.14 84 1011.0
20260510143503 57 16 0.0 3.5 0.13 0.13 0.13 84 1011.2
20260510143007 57 3 0.9 2.6 0.12 0.12 0.12 83 1011.3
20260510142503 57 356 0.9 5.2 0.10 0.10 0.10 82 1011.4
20260510142003 56 328 3.5 9.6 0.10 0.10 0.10 82 1011.6
20260510141503 56 316 5.2 9.6 0.09 0.09 0.09 79 1011.6
20260510141017 57 298 5.2 12.2 0.09 0.09 0.09 79 1011.7
20260510140503 58 258 6.1 13.0 0.08 0.08 0.08 79 1011.7
20260510140017 60 230 4.3 13.0 0.07 0.07 0.07 77 1011.5
20260510135517 62 212 2.6 13.0 0.04 0.04 0.04 75 1011.2
20260510135003 63 250 1.7 7.0 0.00 0.00 0.00 73 1011.1
20260510134503 64 312 0.9 6.1 0.00 0.00 0.00 70 1010.8
20260510134018 65 347 0.9 3.5 0.00 0.00 0.00 69 1010.2
20260510133503 65 75 0.9 3.5 0.00 0.00 0.00 69 1009.8
20260510133003 65 89 1.7 5.2 0.00 0.00 0.00 69 1009.7
20260510132503 66 78 1.7 5.2 0.00 0.00 0.00 68 1009.3
20260510132017 66 30 1.7 3.5 0.00 0.00 0.00 67 1009.1
20260510131503 66 20 1.7 5.2 0.00 0.00 0.00 67 1009.0
20260510131006 66 91 1.7 5.2 0.00 0.00 0.00 66 1008.9
20260510130503 67 98 1.7 2.6 0.00 0.00 0.00 64 1008.9
20260510130003 67 147 1.7 3.5 0.00 0.00 0.00 64 1008.8
20260510125503 67 189 1.7 4.3 0.00 0.00 0.00 64 1008.8
20260510125003 67 122 0.9 4.3 0.00 0.00 0.00 61 1008.7
20260510124503 68 77 0.9 3.5 0.00 0.00 0.00 60 1008.8
20260510124003 68 77 0.9 3.5 0.00 0.00 0.00 58 1008.9
20260510123003 68 83 0.9 2.6 0.00 0.00 0.00 57 1008.9
20260510122503 68 46 0.9 3.5 0.00 0.00 0.00 56 1009.0
20260510122003 68 76 0.9 3.5 0.00 0.00 0.00 55 1009.0
20260510121503 68 99 1.7 3.5 0.00 0.00 0.00 53 1008.9
20260510121003 69 100 1.7 3.5 0.00 0.00 0.00 53 1009.1
20260510120517 70 76 1.7 5.2 0.00 0.00 0.00 51 1009.2
20260510120003 70 317 2.6 6.1 0.00 0.00 0.00 49 1009.3
20260510115503 70 306 2.6 7.0 0.00 0.00 0.00 49 1009.2
20260510115003 70 312 3.5 9.6 0.00 0.00 0.00 48 1009.1
20260510114503 70 311 4.3 9.6 0.00 0.00 0.00 52 1009.3
20260510114017 70 307 3.5 8.7 0.00 0.00 0.00 51 1009.3
20260510113503 71 309 3.5 8.7 0.00 0.00 0.00 49 1009.4
20260510113003 70 311 2.6 7.0 0.00 0.00 0.00 49 1009.4
20260510112503 70 292 2.6 7.0 0.00 0.00 0.00 50 1009.5
20260510112003 71 230 2.6 7.0 0.00 0.00 0.00 47 1009.5
20260510111503 70 186 3.5 7.0 0.00 0.00 0.00 47 1009.5
20260510111003 70 188 3.5 7.8 0.00 0.00 0.00 46 1009.7
20260510110503 70 205 3.5 7.8 0.00 0.00 0.00 46 1009.9
20260510110003 70 181 4.3 9.6 0.00 0.00 0.00 47 1009.9
20260510105503 71 169 4.3 9.6 0.00 0.00 0.00 45 1010.0
20260510105003 70 177 5.2 11.3 0.00 0.00 0.00 47 1010.1
20260510104517 69 177 6.1 11.3 0.00 0.00 0.00 48 1010.1
20260510104017 69 178 6.1 14.8 0.00 0.00 0.00 48 1010.2
20260510103503 69 178 7.0 14.8 0.00 0.00 0.00 47 1010.3
20260510103003 69 179 6.1 13.9 0.00 0.00 0.00 48 1010.2
20260510102503 70 173 6.1 13.9 0.00 0.00 0.00 48 1010.2
20260510102017 69 183 5.2 13.9 0.00 0.00 0.00 47 1010.3
20260510101503 69 215 2.6 9.6 0.00 0.00 0.00 49 1010.2
20260510101003 69 208 2.6 7.0 0.00 0.00 0.00 49 1010.4
20260510100503 69 184 1.7 7.0 0.00 0.00 0.00 52 1010.3
20260510100003 68 219 2.6 7.0 0.00 0.00 0.00 51 1010.1
20260510095503 68 174 4.3 12.2 0.00 0.00 0.00 52 1010.2
20260510095003 68 162 6.1 12.2 0.00 0.00 0.00 51 1010.2
20260510094503 68 172 6.1 12.2 0.00 0.00 0.00 49 1010.2
20260510094003 68 178 4.3 12.2 0.00 0.00 0.00 50 1010.3
20260510093503 68 181 3.5 8.7 0.00 0.00 0.00 49 1010.3
20260510093017 68 193 3.5 9.6 0.00 0.00 0.00 51 1010.3
20260510092517 68 180 4.3 11.3 0.00 0.00 0.00 49 1010.3
20260510092003 68 188 5.2 11.3 0.00 0.00 0.00 50 1010.4
20260510091503 68 200 4.3 7.8 0.00 0.00 0.00 50 1010.5
20260510091003 68 209 4.3 8.7 0.00 0.00 0.00 51 1010.4
20260510090517 68 195 5.2 10.4 0.00 0.00 0.00 51 1010.4
20260510090003 67 174 5.2 11.3 0.00 0.00 0.00 51 1010.5
20260510085503 67 182 5.2 11.3 0.00 0.00 0.00 51 1010.5
20260510085003 68 192 4.3 11.3 0.00 0.00 0.00 51 1010.4
20260510084503 67 175 5.2 12.2 0.00 0.00 0.00 51 1010.7
20260510084003 67 180 6.1 12.2 0.00 0.00 0.00 53 1010.5
20260510083503 66 193 5.2 11.3 0.00 0.00 0.00 53 1010.4
20260510083003 66 188 4.3 10.4 0.00 0.00 0.00 54 1010.4
20260510082503 66 173 4.3 12.2 0.00 0.00 0.00 54 1010.3
20260510082003 66 177 4.3 12.2 0.00 0.00 0.00 54 1010.4
20260510081503 65 176 3.5 8.7 0.00 0.00 0.00 55 1010.4
20260510081003 65 181 4.3 8.7 0.00 0.00 0.00 55 1010.4
20260510080517 65 190 4.3 8.7 0.00 0.00 0.00 55 1010.3
20260510080003 65 188 5.2 10.4 0.00 0.00 0.00 55 1010.2
20260510075503 65 186 4.3 10.4 0.00 0.00 0.00 55 1010.3
20260510075003 65 177 4.3 10.4 0.00 0.00 0.00 57 1010.2
20260510074503 65 186 4.3 10.4 0.00 0.00 0.00 57 1010.1
20260510074003 65 188 5.2 13.9 0.00 0.00 0.00 56 1010.1
20260510073503 65 182 5.2 13.9 0.00 0.00 0.00 57 1010.1
20260510073003 65 186 5.2 11.3 0.00 0.00 0.00 58 1009.8
20260510072503 65 195 6.1 13.9 0.00 0.00 0.00 58 1009.8
20260510072003 65 195 6.1 13.9 0.00 0.00 0.00 57 1009.8
20260510071504 64 183 7.0 14.8 0.00 0.00 0.00 58 1009.7
20260510071003 64 177 7.0 14.8 0.00 0.00 0.00 58 1009.6
20260510070503 64 176 6.1 13.9 0.00 0.00 0.00 59 1009.6
20260510070003 64 188 6.1 12.2 0.00 0.00 0.00 60 1009.4
20260510065503 64 183 6.1 15.6 0.00 0.00 0.00 60 1009.3
20260510065003 64 172 6.1 15.6 0.00 0.00 0.00 61 1009.4
20260510064503 64 186 5.2 12.2 0.00 0.00 0.00 60 1009.3
20260510064003 64 185 5.2 12.2 0.00 0.00 0.00 61 1009.3
20260510063503 64 185 6.1 12.2 0.00 0.00 0.00 61 1009.2
20260510063003 64 204 6.1 13.0 0.00 0.00 0.00 60 1009.4
20260510062503 63 201 5.2 13.0 0.00 0.00 0.00 61 1009.1
20260510062017 63 184 3.5 8.7 0.00 0.00 0.00 62 1009.1
20260510061517 62 183 4.3 10.4 0.00 0.00 0.00 62 1008.9
20260510061017 62 189 4.3 10.4 0.00 0.00 0.00 62 1009.0
20260510060517 62 186 4.3 10.4 0.00 0.00 0.00 62 1008.9
20260510060003 62 190 5.2 13.0 0.00 0.00 0.00 61 1008.8
20260510055517 63 195 5.2 13.0 0.00 0.00 0.00 61 1008.7
20260510055003 63 193 6.1 12.2 0.00 0.00 0.00 62 1008.7
20260510054503 63 192 6.1 12.2 0.00 0.00 0.00 61 1008.6
20260510054017 63 183 6.1 11.3 0.00 0.00 0.00 61 1008.6
20260510053503 63 190 6.1 13.0 0.00 0.00 0.00 61 1008.6
20260510053003 63 201 6.1 13.0 0.00 0.00 0.00 61 1008.6
20260510052503 63 207 5.2 11.3 0.00 0.00 0.00 62 1008.6
20260510052017 62 196 4.3 8.7 0.00 0.00 0.00 63 1008.7
20260510051503 62 194 5.2 10.4 0.00 0.00 0.00 63 1008.6
20260510051003 63 194 6.1 12.2 0.00 0.00 0.00 63 1008.4
20260510050503 63 190 6.1 12.2 0.00 0.00 0.00 63 1008.4
20260510050003 62 199 6.1 10.4 0.00 0.00 0.00 63 1008.5
20260510045503 62 208 5.2 10.4 0.00 0.00 0.00 65 1008.5
20260510045003 62 203 3.5 7.0 0.00 0.00 0.00 66 1008.5
20260510044517 62 205 3.5 7.0 0.00 0.00 0.00 66 1008.4
20260510044003 62 217 2.6 5.2 0.00 0.00 0.00 66 1008.5
20260510043503 62 196 2.6 7.8 0.00 0.00 0.00 65 1008.6
20260510043017 62 189 3.5 7.8 0.00 0.00 0.00 65 1008.5
20260510042503 62 200 4.3 7.0 0.00 0.00 0.00 64 1008.6
20260510042003 63 194 5.2 9.6 0.00 0.00 0.00 63 1008.6
20260510041503 63 199 5.2 13.9 0.00 0.00 0.00 62 1008.6
20260510041003 63 197 5.2 13.9 0.00 0.00 0.00 63 1008.7
20260510040503 63 186 5.2 9.6 0.00 0.00 0.00 63 1008.7
20260510040003 63 180 6.1 12.2 0.00 0.00 0.00 64 1008.6
20260510035503 63 173 5.2 13.0 0.00 0.00 0.00 63 1008.6
20260510035003 63 182 4.3 13.0 0.00 0.00 0.00 63 1008.7
20260510034517 63 194 4.3 7.8 0.00 0.00 0.00 63 1008.8
20260510034017 63 205 3.5 7.8 0.00 0.00 0.00 63 1008.7
20260510033503 63 204 3.5 7.0 0.00 0.00 0.00 63 1008.7
20260510033017 63 188 3.5 8.7 0.00 0.00 0.00 63 1008.6
20260510032503 63 189 3.5 8.7 0.00 0.00 0.00 63 1008.6
20260510032003 63 199 3.5 8.7 0.00 0.00 0.00 63 1008.6
20260510031517 64 198 3.5 8.7 0.00 0.00 0.00 64 1008.6
20260510031003 64 187 4.3 8.7 0.00 0.00 0.00 63 1008.6
20260510030503 64 186 4.3 7.8 0.00 0.00 0.00 63 1008.6
20260510030017 64 203 4.3 7.8 0.00 0.00 0.00 64 1008.6
20260510025503 64 204 4.3 8.7 0.00 0.00 0.00 64 1008.7
20260510025017 64 214 3.5 8.7 0.00 0.00 0.00 64 1008.4
20260510024517 64 217 3.5 7.8 0.00 0.00 0.00 64 1008.6
20260510024003 64 196 3.5 8.7 0.00 0.00 0.00 63 1008.5
20260510023517 64 187 4.3 9.6 0.00 0.00 0.00 63 1008.5
20260510023017 64 202 4.3 9.6 0.00 0.00 0.00 63 1008.4
20260510022503 64 224 2.6 8.7 0.00 0.00 0.00 63 1008.6
20260510022017 64 190 2.6 8.7 0.00 0.00 0.00 63 1008.5
20260510021503 64 188 3.5 7.0 0.00 0.00 0.00 63 1008.7
20260510021003 64 178 4.3 9.6 0.00 0.00 0.00 63 1008.7
20260510020503 64 174 5.2 9.6 0.00 0.00 0.00 62 1008.8
20260510020003 64 199 4.3 9.6 0.00 0.00 0.00 63 1008.6
20260510015503 64 208 3.5 8.7 0.00 0.00 0.00 64 1008.7
20260510015003 64 195 4.3 7.8 0.00 0.00 0.00 64 1008.7
20260510014503 64 192 5.2 9.6 0.00 0.00 0.00 63 1008.6
20260510014003 64 187 5.2 10.4 0.00 0.00 0.00 63 1008.5
20260510013503 64 182 4.3 10.4 0.00 0.00 0.00 63 1008.6
20260510013003 64 178 4.3 9.6 0.00 0.00 0.00 63 1008.6
20260510012503 64 184 4.3 9.6 0.00 0.00 0.00 63 1008.7
20260510012003 64 183 4.3 9.6 0.00 0.00 0.00 63 1008.7
20260510011503 64 176 5.2 10.4 0.00 0.00 0.00 62 1008.7
20260510011003 64 180 5.2 10.4 0.00 0.00 0.00 62 1008.8
20260510010517 64 183 5.2 13.9 0.00 0.00 0.00 62 1008.8
20260510010003 65 185 6.1 13.9 0.00 0.00 0.00 62 1008.7
20260510005503 65 185 7.0 14.8 0.00 0.00 0.00 61 1008.8
20260510005003 65 184 7.0 15.6 0.00 0.00 0.00 61 1008.8
20260510004503 65 189 6.1 15.6 0.00 0.00 0.00 62 1008.8
20260510004003 65 200 6.1 12.2 0.00 0.00 0.00 62 1008.8
20260510003503 65 183 6.1 13.9 0.00 0.00 0.00 61 1008.7
20260510003003 65 178 7.0 13.9 0.00 0.00 0.00 61 1008.6
20260510002517 65 179 6.1 13.0 0.00 0.00 0.00 61 1008.7
20260510002003 65 175 7.0 13.0 0.00 0.00 0.00 61 1008.6
20260510001503 65 181 6.1 13.9 0.00 0.00 0.00 60 1008.7
20260510001003 65 179 6.1 13.9 0.00 0.00 0.00 59 1008.7
20260510000503 66 182 6.1 12.2 0.00 0.00 0.00 59 1008.7
20260510000003 66 187 6.1 14.8 0.00 0.00 0.00 58 1008.7
20260509235503 66 184 6.1 14.8 0.00 0.00 0.00 58 1008.8
20260509235003 66 177 6.1 16.5 0.00 0.00 0.00 58 1008.7
20260509234503 66 186 6.1 16.5 0.00 0.00 0.00 58 1008.8
20260509234003 66 203 6.1 12.2 0.00 0.00 0.00 58 1008.8
20260509233517 66 195 6.1 12.2 0.00 0.00 0.00 58 1008.7
20260509233003 66 181 6.1 13.9 0.00 0.00 0.00 58 1008.6
20260509232503 66 179 5.2 13.9 0.00 0.00 0.00 59 1008.8
20260509232003 66 176 6.1 11.3 0.00 0.00 0.00 59 1008.9
20260509231503 66 173 6.1 10.4 0.00 0.00 0.00 60 1008.8
20260509231017 66 172 5.2 11.3 0.00 0.00 0.00 60 1008.8
20260509230503 66 173 5.2 11.3 0.00 0.00 0.00 60 1008.8
20260509230017 66 176 4.3 10.4 0.00 0.00 0.00 60 1008.9
20260509225517 66 182 3.5 9.6 0.00 0.00 0.00 59 1009.0
20260509225003 66 175 4.3 13.9 0.00 0.00 0.00 59 1009.0
20260509224503 66 166 5.2 13.9 0.00 0.00 0.00 59 1009.0
20260509224003 66 170 4.3 13.0 0.00 0.00 0.00 59 1009.0
20260509223503 66 175 4.3 13.0 0.00 0.00 0.00 59 1009.1
20260509223017 66 167 2.6 7.8 0.00 0.00 0.00 60 1009.2
20260509222503 66 159 3.5 9.6 0.00 0.00 0.00 59 1009.2
20260509222003 66 161 3.5 9.6 0.00 0.00 0.00 59 1009.2
20260509221503 66 158 3.5 8.7 0.00 0.00 0.00 59 1009.2
20260509221003 66 175 3.5 9.6 0.00 0.00 0.00 60 1009.2
20260509220503 65 201 3.5 9.6 0.00 0.00 0.00 61 1009.3
20260509220017 65 236 2.6 8.7 0.00 0.00 0.00 61 1009.2
20260509215503 66 277 0.9 7.8 0.00 0.00 0.00 60 1009.3
20260509215003 66 257 0.9 3.5 0.00 0.00 0.00 59 1009.2
20260509214503 66 253 0.0 1.7 0.00 0.00 0.00 59 1009.3
20260509214017 66 253 0.9 1.7 0.00 0.00 0.00 58 1009.2
20260509213503 67 252 0.9 2.6 0.00 0.00 0.00 58 1009.2
20260509213003 67 229 0.9 4.3 0.00 0.00 0.00 58 1009.2
20260509212503 67 247 1.7 4.3 0.00 0.00 0.00 58 1009.3
20260509212003 67 256 1.7 6.1 0.00 0.00 0.00 58 1009.2
20260509211503 67 219 2.6 6.1 0.00 0.00 0.00 57 1009.1
20260509211003 67 184 3.5 8.7 0.00 0.00 0.00 57 1009.1
20260509210503 67 203 4.3 9.6 0.00 0.00 0.00 57 1009.1
20260509210003 67 226 2.6 9.6 0.00 0.00 0.00 57 1009.2
20260509205517 67 195 0.9 7.8 0.00 0.00 0.00 58 1009.1
20260509205003 67 200 0.9 5.2 0.00 0.00 0.00 58 1009.1
20260509204503 67 193 1.7 5.2 0.00 0.00 0.00 58 1009.2
20260509204003 67 190 1.7 3.5 0.00 0.00 0.00 58 1009.2
20260509203503 67 186 1.7 10.4 0.00 0.00 0.00 58 1009.2
20260509203003 67 167 2.6 10.4 0.00 0.00 0.00 57 1009.0
20260509202503 68 120 1.7 4.3 0.00 0.00 0.00 58 1009.0
20260509202003 68 108 0.9 3.5 0.00 0.00 0.00 57 1008.9
20260509201517 68 267 0.0 2.6 0.00 0.00 0.00 57 1008.9
20260509201003 68 217 0.9 2.6 0.00 0.00 0.00 57 1009.0
20260509200503 68 167 1.7 7.0 0.00 0.00 0.00 56 1008.8
20260509200017 69 134 2.6 7.0 0.00 0.00 0.00 56 1008.8
20260509195503 69 124 2.6 7.0 0.00 0.00 0.00 55 1008.8
20260509195003 69 151 2.6 7.8 0.00 0.00 0.00 55 1008.7
20260509194517 69 145 2.6 7.8 0.00 0.00 0.00 55 1008.7
20260509194003 69 121 1.7 6.1 0.00 0.00 0.00 54 1008.7
20260509193503 69 120 1.7 7.8 0.00 0.00 0.00 53 1008.8
20260509193003 70 126 1.7 7.8 0.00 0.00 0.00 53 1008.7
20260509192503 70 138 1.7 6.1 0.00 0.00 0.00 53 1008.7
20260509192003 70 153 3.5 8.7 0.00 0.00 0.00 52 1008.8
20260509191503 70 161 3.5 9.6 0.00 0.00 0.00 52 1008.8
20260509191017 70 159 3.5 9.6 0.00 0.00 0.00 52 1008.7
20260509190503 70 149 1.7 5.2 0.00 0.00 0.00 52 1008.6
20260509190003 70 134 0.9 3.5 0.00 0.00 0.00 52 1008.6
20260509185517 70 141 2.6 12.2 0.00 0.00 0.00 52 1008.5
20260509185003 70 140 2.6 12.2 0.00 0.00 0.00 52 1008.5
20260509184503 69 120 1.7 6.1 0.00 0.00 0.00 55 1008.6
20260509184017 69 164 2.6 6.1 0.00 0.00 0.00 55 1008.4
20260509183503 70 180 1.7 6.1 0.00 0.00 0.00 55 1008.4
20260509183003 70 3 0.9 2.6 0.00 0.00 0.00 56 1008.4
20260509182503 70 350 0.9 4.3 0.00 0.00 0.00 58 1008.4
20260509182003 70 343 0.9 4.3 0.00 0.00 0.00 54 1008.3
20260509181503 70 331 0.0 3.5 0.00 0.00 0.00 58 1008.4
20260509181003 70 311 0.0 2.6 0.00 0.00 0.00 57 1008.3
20260509180503 70 310 0.9 3.5 0.00 0.00 0.00 57 1008.3
20260509180003 70 310 0.9 3.5 0.00 0.00 0.00 57 1008.3